Brownsville, TX

11:13 AM CST on December 06, 2016 (GMT -0600)
Brownsville-South Padre I International

Weather History for KBRO - December, 2013

Change the Weather History Date:

Tuesday, December 31, 2013

  Actual Average Record
Temperature  
Mean Temperature 45 °F 61 °F  
Max Temperature 47 °F 70 °F 89 °F (1985)
Min Temperature 43 °F 51 °F 21 °F (1880)
Degree Days  
Heating Degree Days 20 6  
Month to date heating degree days 217 163  
Since 1 July heating degree days 325 219  
Cooling Degree Days 0 2  
Month to date cooling degree days 77 80  
Year to date cooling degree days 4197 4025  
Moisture  
Dew Point 43 °F    
Average Humidity 94    
Maximum Humidity 96    
Minimum Humidity 92    
Precipitation  
Precipitation 0.37 in 0.03 in 0.92 in (1993)
Month to date precipitation 3.52 1.15  
Year to date precipitation 29.01 27.44  
Sea Level Pressure  
Sea Level Pressure 30.35 in    
Wind  
Wind Speed 9 mph (NNW)    
Max Wind Speed 18 mph    
Max Gust Speed 23 mph    
Visibility 10 miles    
Events Rain    
T = Trace of Precipitation, MM = Missing Value Source: NWS Daily Summary

Daily Weather History Graph

Daily Weather History Graph

Search for Another Location

Airport or City:

Trip Planner

Search our weather history database for the weather conditions in past years. The results will help you decide how hot, cold, wet, or windy it might be!

Date:

Astronomy

Dec. 31, 2013 Rise Set
Actual Time 7:16 AM CST 5:49 PM CST
Civil Twilight 6:51 AM CST 6:14 PM CST
Nautical Twilight 6:22 AM CST 6:43 PM CST
Astronomical Twilight 5:54 AM CST 7:11 PM CST
Moon 6:14 AM CST (12/31) 5:22 PM CST (12/31)
Length of Visible Light 11h 23m
Length of Day
10h 33m
Waning Crescent, 1% of the Moon is Illuminated
Dec 31
Waning Crescent
Jan 1
New
Jan 7
First Quarter
Jan 15
Full
Jan 23
Last Quarter

Hourly Weather History & Observations

Time (CST) Temp. Windchill Dew Point Humidity Pressure Visibility Wind Dir Wind Speed Gust Speed Precip Events Conditions
12:35 AM 44.6 °F 40.2 °F 42.8 °F 93% 30.35 in 10.0 mi NW 8.1 mph - 0.02 in Rain Light Rain
12:53 AM 44.1 °F 38.1 °F 42.1 °F 93% 30.34 in 10.0 mi NNW 11.5 mph - 0.04 in Rain Rain
1:01 AM 44.6 °F 39.2 °F 42.8 °F 93% 30.35 in 10.0 mi NNW 10.4 mph 18.4 mph 0.00 in Rain Rain
1:10 AM 44.6 °F 38.4 °F 42.8 °F 93% 30.34 in 10.0 mi NNW 12.7 mph 19.6 mph 0.01 in Rain Light Rain
1:22 AM 44.6 °F 39.2 °F 42.8 °F 93% 30.34 in 10.0 mi NNW 10.4 mph - 0.02 in Rain Light Rain
1:53 AM 44.1 °F 37.7 °F 42.1 °F 93% 30.34 in 10.0 mi NNW 12.7 mph - 0.03 in Rain Light Rain
2:05 AM 44.6 °F 39.7 °F 42.8 °F 93% 30.35 in 10.0 mi NNW 9.2 mph - 0.01 in Rain Light Rain
2:53 AM 44.1 °F 38.1 °F 42.1 °F 93% 30.36 in 10.0 mi NNW 11.5 mph 18.4 mph 0.06 in Rain Light Rain
3:20 AM 44.6 °F 40.2 °F 42.8 °F 93% 30.36 in 10.0 mi NNW 8.1 mph - 0.03 in Rain Rain
3:53 AM 44.1 °F 38.1 °F 42.1 °F 93% 30.35 in 10.0 mi NNW 11.5 mph - 0.06 in Rain Light Rain
4:00 AM 44.6 °F 38.4 °F 42.8 °F 93% 30.35 in 10.0 mi NW 12.7 mph - 0.00 in Rain Light Rain
4:11 AM 42.8 °F 36.6 °F 42.8 °F 100% 30.35 in 10.0 mi NW 11.5 mph - 0.01 in Rain Light Rain
4:44 AM 44.6 °F 39.2 °F 42.8 °F 93% 30.34 in 10.0 mi NNW 10.4 mph 17.3 mph 0.01 in Rain Light Rain
4:53 AM 44.1 °F 39.0 °F 42.1 °F 93% 30.34 in 10.0 mi NNW 9.2 mph - 0.01 in Rain Light Rain
5:53 AM 44.1 °F 38.6 °F 42.1 °F 93% 30.35 in 10.0 mi NNW 10.4 mph - 0.01 in   Overcast
6:53 AM 43.0 °F 37.7 °F 41.0 °F 93% 30.36 in 10.0 mi NNW 9.2 mph - 0.00 in   Overcast
6:58 AM 42.8 °F 36.6 °F 41.0 °F 93% 30.36 in 10.0 mi NNW 11.5 mph - N/A   Overcast
7:40 AM 44.6 °F 39.7 °F 41.0 °F 87% 30.38 in 10.0 mi NNW 9.2 mph - 0.00 in Rain Light Rain
7:53 AM 44.1 °F 38.6 °F 42.1 °F 93% 30.38 in 10.0 mi NNW 10.4 mph - 0.00 in Rain Light Rain
8:53 AM 44.1 °F 38.6 °F 42.1 °F 93% 30.40 in 10.0 mi NNW 10.4 mph - 0.00 in Rain Light Rain
9:53 AM 44.1 °F 38.6 °F 42.1 °F 93% 30.41 in 10.0 mi NNW 10.4 mph - 0.00 in   Overcast
10:26 AM 44.6 °F 38.4 °F 42.8 °F 93% 30.40 in 10.0 mi NW 12.7 mph - N/A   Overcast
10:40 AM 44.6 °F 38.1 °F 42.8 °F 93% 30.41 in 10.0 mi NW 13.8 mph 19.6 mph N/A   Overcast
10:53 AM 45.0 °F 39.3 °F 42.1 °F 90% 30.41 in 10.0 mi NNW 11.5 mph 18.4 mph N/A   Overcast
11:36 AM 44.6 °F 38.4 °F 42.8 °F 93% 30.39 in 10.0 mi NNW 12.7 mph - 0.00 in Rain Light Rain
11:53 AM 46.0 °F 39.6 °F 43.0 °F 89% 30.39 in 10.0 mi NW 15.0 mph - 0.00 in Rain Light Rain
12:19 PM 46.4 °F 40.1 °F 44.6 °F 93% 30.38 in 10.0 mi NNW 15.0 mph 21.9 mph 0.00 in   Overcast
12:53 PM 46.0 °F 41.0 °F 44.1 °F 93% 30.36 in 10.0 mi NW 10.4 mph - 0.00 in   Overcast
1:43 PM 46.4 °F 40.4 °F 44.6 °F 93% 30.34 in 10.0 mi NW 13.8 mph - 0.01 in Rain Light Rain
1:53 PM 46.9 °F - 45.0 °F 93% 30.34 in 10.0 mi NW 10.4 mph 17.3 mph 0.01 in Rain Light Rain
2:17 PM 46.4 °F 40.7 °F 44.6 °F 93% 30.32 in 10.0 mi NW 12.7 mph 23.0 mph 0.00 in Rain Light Rain
2:28 PM 46.4 °F 40.4 °F 44.6 °F 93% 30.32 in 10.0 mi NW 13.8 mph 23.0 mph 0.00 in Rain Light Rain
2:53 PM 46.0 °F 41.0 °F 44.1 °F 93% 30.32 in 10.0 mi NNW 10.4 mph 20.7 mph 0.00 in Rain Light Rain
3:02 PM 46.4 °F 41.9 °F 44.6 °F 93% 30.31 in 10.0 mi NNW 9.2 mph - 0.00 in Rain Light Rain
3:40 PM 46.4 °F 41.5 °F 44.6 °F 93% 30.31 in 10.0 mi NNW 10.4 mph - 0.00 in   Overcast
3:53 PM 46.9 °F - 44.1 °F 90% 30.31 in 10.0 mi North 8.1 mph - 0.00 in   Overcast
4:53 PM 46.9 °F - 44.1 °F 90% 30.31 in 10.0 mi North 8.1 mph - N/A   Overcast
5:53 PM 46.0 °F 42.5 °F 44.1 °F 93% 30.32 in 10.0 mi North 6.9 mph - N/A   Overcast
6:53 PM 46.0 °F 41.9 °F 44.1 °F 93% 30.32 in 10.0 mi North 8.1 mph - 0.00 in Rain Light Rain
7:42 PM 46.4 °F 43.5 °F 44.6 °F 93% 30.33 in 10.0 mi NNW 5.8 mph - 0.00 in   Overcast
7:53 PM 46.9 °F - 45.0 °F 93% 30.33 in 10.0 mi NW 4.6 mph - 0.00 in   Overcast
8:53 PM 46.9 °F - 45.0 °F 93% 30.32 in 10.0 mi North 5.8 mph - 0.02 in Rain Rain
9:53 PM 46.9 °F - 45.0 °F 93% 30.31 in 9.0 mi NNW 5.8 mph - 0.09 in Rain Rain
10:53 PM 46.9 °F - 45.0 °F 93% 30.28 in 10.0 mi NNW 6.9 mph - 0.04 in Rain Light Rain
11:53 PM 46.9 °F - 46.0 °F 97% 30.26 in 9.0 mi NW 5.8 mph - 0.01 in Rain Light Rain